Torna al catalogo

YAOGAN-31 B

AttivoMilitareLEO
NORAD 43276·PAYLOAD·🇨🇳 China

Lanciato Apr 10, 2018 da Jiuquan Satellite Launch Center

Loading…

Prossimi Passaggi (prossime 24 ore)

TLE

AggiornatoSource: Space-Track

Epoca: Sep 14, 2026, 14:59 UTC

1 43276U 18034B   26257.62470104  .00000031  00000-0  16121-3 0  9992
2 43276  63.3928 221.1431 0283093   7.6551 352.8661 13.45462451414250

Traccia YAOGAN-31 B in tempo reale con AllMySat

Download on the App Store